Beaver, WV

1:14 AM EDT on September 28, 2016 (GMT -0400)
Raleigh County Memorial

Weather History for KBKW - April, 2014

Change the Weather History Date:

Saturday, April 19, 2014

  Actual Average Record
Temperature  
Mean Temperature 56 °F 53 °F  
Max Temperature 67 °F 64 °F 84 °F (1976)
Min Temperature 45 °F 43 °F 20 °F (1926)
Degree Days  
Heating Degree Days 9 12  
Month to date heating degree days 222 280  
Since 1 July heating degree days 5248 4993  
Cooling Degree Days 0 0  
Month to date cooling degree days 5 0  
Year to date cooling degree days 5 1  
Growing Degree Days 6 (Base 50)    
Moisture  
Dew Point 33 °F    
Average Humidity 45    
Maximum Humidity 60    
Minimum Humidity 29    
Precipitation  
Precipitation 0.00 in 0.11 in 1.12 in (1901)
Month to date precipitation 1.52 2.06  
Year to date precipitation 9.09 11.20  
Snow  
Snow 0.00 in - - ()
Month to date snowfall 0.6  
Since 1 September snowfall 76.3  
Snow Depth 0.00 in    
Sea Level Pressure  
Sea Level Pressure 30.19 in    
Wind  
Wind Speed 6 mph (NE)    
Max Wind Speed 16 mph    
Max Gust Speed 23 mph    
Visibility 10 miles    
Events      
T = Trace of Precipitation, MM = Missing Value Source: NWS Daily Summary

Daily Weather History Graph

Daily Weather History Graph

Search for Another Location

Airport or City:

Trip Planner

Search our weather history database for the weather conditions in past years. The results will help you decide how hot, cold, wet, or windy it might be!

Date:

Astronomy

Apr. 19, 2014 Rise Set
Actual Time 6:43 AM EDT 8:03 PM EDT
Civil Twilight 6:16 AM EDT 8:31 PM EDT
Nautical Twilight 5:43 AM EDT 9:04 PM EDT
Astronomical Twilight 5:09 AM EDT 9:38 PM EDT
Moon No Moon Rise 10:03 AM EDT (4/19)
Length of Visible Light 14h 14m
Length of Day
13h 20m
Waning Gibbous, 79% of the Moon is Illuminated
Apr 19
Waning Gibbous
Apr 22
Last Quarter
Apr 29
New
May 6
First Quarter
May 14
Full

Hourly Weather History & Observations

Time (EDT) Temp. Windchill Dew Point Humidity Pressure Visibility Wind Dir Wind Speed Gust Speed Precip Events Conditions
12:51 AM 50.0 °F - 30.0 °F 46% 30.21 in 10.0 mi SSE 3.5 mph - N/A   Clear
1:51 AM 50.0 °F - 30.9 °F 48% 30.18 in 10.0 mi ENE 3.5 mph - N/A   Clear
2:51 AM 46.9 °F - 32.0 °F 56% 30.17 in 10.0 mi Calm Calm - N/A   Clear
3:51 AM 46.9 °F - 32.0 °F 56% 30.16 in 10.0 mi Calm Calm - N/A   Clear
4:51 AM 46.4 °F 45.2 °F 32.0 °F 57% 30.18 in 10.0 mi East 3.5 mph - N/A   Clear
5:51 AM 48.9 °F - 32.0 °F 52% 30.17 in 10.0 mi ENE 3.5 mph - N/A   Clear
6:51 AM 46.0 °F - 32.0 °F 58% 30.19 in 10.0 mi Calm Calm - N/A   Clear
7:51 AM 46.0 °F 43.9 °F 33.1 °F 61% 30.21 in 10.0 mi ENE 4.6 mph - N/A   Clear
8:51 AM 51.1 °F - 32.0 °F 48% 30.21 in 10.0 mi ENE 4.6 mph - N/A   Clear
9:51 AM 55.0 °F - 32.0 °F 42% 30.21 in 10.0 mi NE 6.9 mph - N/A   Clear
10:51 AM 57.0 °F - 33.1 °F 40% 30.21 in 10.0 mi North 6.9 mph - N/A   Clear
11:51 AM 59.0 °F - 33.1 °F 38% 30.21 in 10.0 mi NE 8.1 mph - N/A   Clear
12:51 PM 64.0 °F - 34.0 °F 33% 30.19 in 10.0 mi NNW 11.5 mph - N/A   Clear
1:51 PM 64.9 °F - 34.0 °F 32% 30.18 in 10.0 mi North 13.8 mph 23.0 mph N/A   Clear
2:51 PM 64.9 °F - 33.1 °F 31% 30.17 in 10.0 mi NNW 12.7 mph - N/A   Clear
3:51 PM 66.0 °F - 33.1 °F 29% 30.16 in 10.0 mi Variable 4.6 mph - N/A   Clear
4:51 PM 64.9 °F - 33.1 °F 31% 30.16 in 10.0 mi North 11.5 mph - N/A   Clear
5:51 PM 64.9 °F - 33.1 °F 31% 30.16 in 10.0 mi NNE 10.4 mph - N/A   Clear
6:51 PM 63.0 °F - 33.1 °F 33% 30.17 in 10.0 mi North 10.4 mph - N/A   Clear
7:51 PM 61.0 °F - 33.1 °F 35% 30.18 in 10.0 mi NNE 10.4 mph - N/A   Clear
8:51 PM 59.0 °F - 33.1 °F 38% 30.21 in 10.0 mi NNE 6.9 mph - N/A   Clear
9:51 PM 55.9 °F - 34.0 °F 44% 30.22 in 10.0 mi SSE 3.5 mph - N/A   Clear
10:51 PM 54.0 °F - 36.0 °F 51% 30.23 in 10.0 mi SE 4.6 mph - N/A   Clear
11:51 PM 53.1 °F - 36.0 °F 52% 30.23 in 10.0 mi ESE 4.6 mph - N/A   Clear